User: anonymous
Location: St Andrew
(49.4460°N, 2.5750°W)
Time: 11:00:11
(UTC+01:00)
Language:

Iridium 66 - Orbit

View from above orbital plane
View from above orbital plane
View from above satellite
View from above satellite

Ground track
Ground track

The orbit data is extracted from the following two-line orbital elements,

1 25289U 98021E   14106.24814209  .00000332  00000-0  11148-3 0  6700
2 25289 086.3980 347.8033 0002096 104.2267 035.2213 14.34211708839040
Epoch (UTC): 16 April 2014 05:57:19
Eccentricity: 0.0002096
inclination: 86.3980°
perigee height: 776 km
apogee height: 779 km
right ascension of ascending node: 347.8033°
argument of perigee: 104.2267°
revolutions per day: 14.34211708
mean anomaly at epoch: 35.2213°
orbit number at epoch: 83904

The dashed part of the orbit path shows where the satellite is in the earth's shadow,  

DLR